Voltar ao catálogo

COSMOS 2165

AtivoMilitarPO
NORAD 21779·PAYLOAD·🇷🇺 Russia

Lançado Nov 12, 1991 de Plesetsk Cosmodrome

Loading…

Próximas Passagens (próximas 24 horas)

TLE

AtualizadoSource: Space-Track

Época: Sep 14, 2026, 12:01 UTC

1 21779U 91077A   26257.50088315  .00000035  00000-0  13203-3 0  9992
2 21779  82.6106 175.1674 0009560 206.4466 327.8403 12.64923084608280

Acompanhe COSMOS 2165 em tempo real com AllMySat

Download on the App Store